Satellite: RESURS
Catalog number: 25394
Epoch time: 09168.72220706
Element set: 0253
Inclination: 098.3406 deg
RA of node: 201.0433 deg
Eccentricity: 0.0000848
Arg of perigee: 169.3851 deg
Mean anomaly: 190.7346 deg
Mean motion: 14.24183940 rev/day
Decay rate: -3.7e-07 rev/day^2
Epoch rev: 56847
Checksum: 296
Satellite: FENGYUN1
Catalog number: 25730
Epoch time: 09168.92193744
Element set: 0834
Inclination: 098.7565 deg
RA of node: 139.0664 deg
Eccentricity: 0.0019247
Arg of perigee: 215.9169 deg
Mean anomaly: 144.0708 deg
Mean motion: 14.07912222 rev/day
Decay rate: -7.99e-06 rev/day^2
Epoch rev: 52042
Checksum: 323
Satellite: OKEAN-0
Catalog number: 25860
Epoch time: 09168.85055746
Element set: 0707
Inclination: 097.7855 deg
RA of node: 150.0036 deg
Eccentricity: 0.0001359
Arg of perigee: 107.6517 deg
Mean anomaly: 252.4841 deg
Mean motion: 14.73576986 rev/day
Decay rate: 1.9e-07 rev/day^2
Epoch rev: 53324
Checksum: 320
Satellite: NOAA-16
Catalog number: 26536
Epoch time: 09168.92986186
Element set: 0445
Inclination: 099.1762 deg
RA of node: 172.6132 deg
Eccentricity: 0.0009629
Arg of perigee: 281.4643 deg
Mean anomaly: 078.5435 deg
Mean motion: 14.12521602 rev/day
Decay rate: 4.5e-07 rev/day^2
Epoch rev: 45040
Checksum: 314
Satellite: NOAA-17
Catalog number: 27453
Epoch time: 09168.91397125
Element set: 0452
Inclination: 098.4837 deg
RA of node: 227.9589 deg
Eccentricity: 0.0012703
Arg of perigee: 119.4006 deg
Mean anomaly: 240.8441 deg
Mean motion: 14.24070961 rev/day
Decay rate: 1.49e-06 rev/day^2
Epoch rev: 36285
Checksum: 321
Satellite: NOAA-18
Catalog number: 28654
Epoch time: 09168.89788291
Element set: 0942
Inclination: 098.9072 deg
RA of node: 112.1310 deg
Eccentricity: 0.0014484
Arg of perigee: 005.1210 deg
Mean anomaly: 355.0144 deg
Mean motion: 14.11265430 rev/day
Decay rate: 4.01e-06 rev/day^2
Epoch rev: 21005
Checksum: 271
Satellite: NOAA-19
Catalog number: 33591
Epoch time: 09168.73620293
Element set: 0145
Inclination: 098.7469 deg
RA of node: 114.4827 deg
Eccentricity: 0.0013202
Arg of perigee: 240.1374 deg
Mean anomaly: 119.8473 deg
Mean motion: 14.10965226 rev/day
Decay rate: -3.0e-08 rev/day^2
Epoch rev: 01851
Checksum: 296
/EX
SB KEPS @ AMSAT $ORB09169.M
Orbital Elements 09169.MISC
HR AMSAT ORBITAL ELEMENTS FOR MANNED AND MISCELLANEOUS SATELLITES
FROM WA5QGD FORT WORTH,TX June 18, 2009
Send Subscribe/unsubscribe to KEPS at
http://www.amsat.org/mailman/listinfo/keps
BID: ORB09169.M
TO ALL RADIO AMATEURS BT
Satellite: HUBBLE
Catalog number: 20580
Epoch time: 09168.24607405
Element set: 0409
Inclination: 028.4682 deg
RA of node: 101.9284 deg
Eccentricity: 0.0003301
Arg of perigee: 281.8128 deg
Mean anomaly: 078.2090 deg
Mean motion: 15.00809493 rev/day
Decay rate: 2.82e-06 rev/day^2
Epoch rev: 84986
Checksum: 293
Satellite: ISS
Catalog number: 25544
Epoch time: 09168.89338167
Element set: 0058
Inclination: 051.6413 deg
RA of node: 303.2759 deg
Eccentricity: 0.0008853
Arg of perigee: 122.3216 deg
Mean anomaly: 021.0594 deg
Mean motion: 15.73787424 rev/day
Decay rate: 1.3743e-04 rev/day^2
Epoch rev: 60606
Checksum: 304
Satellite: CO-58
Catalog number: 28895
Epoch time: 09168.40667934
Element set: 0331
Inclination: 098.0597 deg
RA of node: 059.0173 deg
Eccentricity: 0.0017822
Arg of perigee: 351.4463 deg
Mean anomaly: 008.6403 deg
Mean motion: 14.59774683 rev/day
Decay rate: -4.3e-07 rev/day^2
Epoch rev: 19376
Checksum: 344
Satellite: FALCON
Catalog number: 30776
Epoch time: 09168.96229017
Element set: 0594
Inclination: 035.4327 deg
RA of node: 094.7053 deg
Eccentricity: 0.0001722
Arg of perigee: 304.0219 deg
Mean anomaly: 056.0343 deg
Mean motion: 15.03256682 rev/day
Decay rate: 2.34e-06 rev/day^2
Epoch rev: 12521
Checksum: 272
Satellite: MAST
Catalog number: 31126
Epoch time: 09168.86049026
Element set: 0620
Inclination: 097.9894 deg
RA of node: 223.6357 deg
Eccentricity: 0.0093445
Arg of perigee: 278.1579 deg
Mean anomaly: 080.9008 deg
Mean motion: 14.53500617 rev/day
Decay rate: -1.9e-07 rev/day^2
Epoch rev: 11513
Checksum: 307
Satellite: CAPE1
Catalog number: 31130
Epoch time: 09168.83107688
Element set: 0630
Inclination: 097.9919 deg
RA of node: 221.7898 deg
Eccentricity: 0.0101104
Arg of perigee: 283.5752 deg
Mean anomaly: 075.4172 deg
Mean motion: 14.52063717 rev/day
Decay rate: -8.5e-07 rev/day^2
Epoch rev: 11478
Checksum: 310
Satellite: COMPASS
Catalog number: 32787
Epoch time: 09168.16942204
Element set: 0393
Inclination: 097.9423 deg
RA of node: 231.9942 deg
Eccentricity: 0.0016753
Arg of perigee: 035.6014 deg
Mean anomaly: 324.6312 deg
Mean motion: 14.81614453 rev/day
Decay rate: 2.26e-06 rev/day^2
Epoch rev: 06144
Checksum: 291
Satellite: AAUSAT2
Catalog number: 32788
Epoch time: 09168.74506721
Element set: 385
Inclination: 097.9406 deg
RA of node: 232.6225 deg
Eccentricity: 0.0016361
Arg of perigee: 035.3304 deg
Mean anomaly: 324.8975 deg
Mean motion: 14.81736294 rev/day
Decay rate: 9.0e-08 rev/day^2
Epoch rev: 6153
Checksum: 312
Satellite: DO-64
Catalog number: 32789
Epoch time: 09168.76673300
Element set: 396
Inclination: 097.9473 deg
RA of node: 232.8070 deg
Eccentricity: 0.0016543
Arg of perigee: 033.4827 deg
Mean anomaly: 326.7427 deg
Mean motion: 14.81724287 rev/day
Decay rate: 4.40e-06 rev/day^2
Epoch rev: 6153
Checksum: 328
Satellite: CO-66
Catalog number: 32791
Epoch time: 09168.14470888
Element set: 0383
Inclination: 097.9453 deg
RA of node: 232.0034 deg
Eccentricity: 0.0017207
Arg of perigee: 034.0045 deg
Mean anomaly: 326.2267 deg
Mean motion: 14.81444061 rev/day
Decay rate: 3.88e-06 rev/day^2
Epoch rev: 06140
Checksum: 297
Satellite: RS-30
Catalog number: 32953
Epoch time: 09168.75321021
Element set: 0333
Inclination: 082.5018 deg
RA of node: 256.2592 deg
Eccentricity: 0.0019385
Arg of perigee: 173.5586 deg
Mean anomaly: 186.5751 deg
Mean motion: 12.43001722 rev/day
Decay rate: 1.0e-07 rev/day^2
Epoch rev: 04846
Checksum: 284
Satellite: TACSAT-3
Catalog number: 35001
Epoch time: 09168.60052525
Element set: 0035
Inclination: 040.4564 deg
RA of node: 238.1823 deg
Eccentricity: 0.0023800
Arg of perigee: 167.4218 deg
Mean anomaly: 192.7192 deg
Mean motion: 15.38837285 rev/day
Decay rate: 1.224e-05 rev/day^2
Epoch rev: 00441
Checksum: 269
Satellite: PHARMSAT
Catalog number: 35002
Epoch time: 09168.58610600
Element set: 0032
Inclination: 040.4687 deg
RA of node: 238.0932 deg
Eccentricity: 0.0026618
Arg of perigee: 171.1736 deg
Mean anomaly: 188.9550 deg
Mean motion: 15.39608994 rev/day
Decay rate: 1.319e-05 rev/day^2
Epoch rev: 00440
Checksum: 290
Satellite: HAWKSAT1
Catalog number: 35003
Epoch time: 09168.58115307
Element set: 0038
Inclination: 040.4708 deg
RA of node: 238.0590 deg
Eccentricity: 0.0027383
Arg of perigee: 172.9269 deg
Mean anomaly: 187.1936 deg
Mean motion: 15.39866827 rev/day
Decay rate: 9.26e-06 rev/day^2
Epoch rev: 00441
Checksum: 311
Satellite: CP6
Catalog number: 35004
Epoch time: 09168.57868319
Element set: 23
Inclination: 040.4623 deg
RA of node: 238.0156 deg
Eccentricity: 0.0027466
Arg of perigee: 174.4077 deg
Mean anomaly: 185.7048 deg
Mean motion: 15.40055166 rev/day
Decay rate: 2.804e-05 rev/day^2
Epoch rev: 440
Checksum: 289
Satellite: AEROCUB3
Catalog number: 35005
Epoch time: 09168.58222696
Element set: 0032
Inclination: 040.4775 deg
RA of node: 238.0801 deg
Eccentricity: 0.0026609
Arg of perigee: 171.7315 deg
Mean anomaly: 188.3941 deg
Mean motion: 15.39872243 rev/day
Decay rate: 2.867e-05 rev/day^2
Epoch rev: 00440
Checksum: 299
/EX
More information about the Keps
mailing list